Location: Unspecified
(0.0000°N, 0.0000°E)
Time: 01:07:44
(UTC+00:00)

S-56A Canister/Altair - Pass Details

Date: 21 May 2026
Orbit: 632 x 2484 km, 38.9° (Epoch: 9 June)

Event Time Altitude Azimuth Distance (km) Brightness Sun altitude
Exits shadow 03:33:37 50° 182° (S) 1,973 9.3 -33.3°
Drops below altitude 10° 03:43:04 10° 143° (SE) 4,488 11.5 -31.1°
Sets 03:47:20 0° 139° (SE) 5,728 12.2 -30.1°
